Location: Conflandey
(47.7287°N, 6.0456°E)
Time: 03:54:29
(UTC+00:00)

Meteor 2-10 Rocket - Pass Details

Date: 24 October 2021
Orbit: 733 x 885 km, 81.2° (Epoch: 28 November)

Event Time Altitude Azimuth Distance (km) Brightness Sun altitude
Rises 17:28:15 0° 164° (SSE) 3,399 6.8 -10.2°
Reaches altitude 10° 17:30:52 10° 156° (SSE) 2,446 5.9 -10.7°
Maximum altitude 17:35:50 36° 92° (E) 1,284 4.2 -11.5°
Drops below altitude 10° 17:40:40 10° 27° (NNE) 2,370 5.7 -12.3°
Sets 17:43:09 0° 19° (NNE) 3,279 6.5 -12.7°
